Change the Weather History Date:

Sunday, November 10, 2013

  Actual Average Record
Temperature  
Mean Temperature 35 °F -  
Max Temperature 42 °F 38 °F 64 °F (1954)
Min Temperature 27 °F 26 °F 4 °F (1979)
Degree Days  
Heating Degree Days 30    
Moisture  
Dew Point 28 °F    
Average Humidity 72    
Maximum Humidity 98    
Minimum Humidity 50    
Precipitation  
Precipitation 0.00 in - - ()
Sea Level Pressure  
Sea Level Pressure 30.16 in    
Wind  
Wind Speed 10 mph (West)    
Max Wind Speed 18 mph    
Max Gust Speed 25 mph    
Visibility 10 miles    
Events Rain , Snow    
Averages and records for this station are not official NWS values.
T = Trace of Precipitation, MM = Missing Value Source: NWS Daily Summary

Daily Weather History Graph

Daily Weather History Graph

Search for Another Location

Airport or City:

Trip Planner

Search our weather history database for the weather conditions in past years. The results will help you decide how hot, cold, wet, or windy it might be!

Date:

Astronomy

Nov. 10, 2013 Rise Set
Actual Time 7:03 AM CST 4:40 PM CST
Civil Twilight 6:31 AM CST 5:12 PM CST
Nautical Twilight 5:55 AM CST 5:48 PM CST
Astronomical Twilight 5:19 AM CST 6:24 PM CST
Moon 1:09 PM CST (11/10) No Moon Set
Length of Visible Light 10h 41m
Length of Day
9h 36m
First Quarter, 56% of the Moon is Illuminated
Nov 10
First Quarter
Nov 17
Full
Nov 25
Last Quarter
Dec 2
New
Dec 9
First Quarter

Hourly Weather History & Observations

Time (CST) Temp. Windchill Dew Point Humidity Pressure Visibility Wind Dir Wind Speed Gust Speed Precip Events Conditions
12:15 AM 37.0 °F 29.3 °F 30.0 °F 76% 30.11 in 10.0 mi WNW 11.5 mph 17.3 mph N/A   Overcast
12:35 AM 37.0 °F 28.9 °F 30.0 °F 76% 30.12 in 10.0 mi NW 12.7 mph 17.3 mph N/A   Overcast
12:55 AM 36.9 °F 30.1 °F 30.0 °F 76% 30.13 in 10.0 mi WNW 9.2 mph - N/A   Overcast
1:15 AM 36.7 °F 27.6 °F 30.2 °F 77% 30.14 in 10.0 mi NW 15.0 mph - N/A   Overcast
1:35 AM 36.5 °F 28.7 °F 30.2 °F 78% 30.15 in 10.0 mi NW 11.5 mph 17.3 mph N/A   Overcast
1:55 AM 36.5 °F 28.2 °F 29.5 °F 76% 30.16 in 10.0 mi NW 12.7 mph - N/A   Overcast
2:15 AM 36.3 °F 28.9 °F 29.8 °F 77% 30.17 in 10.0 mi WNW 10.4 mph - N/A   Overcast
2:35 AM 35.6 °F 28.6 °F 30.2 °F 81% 30.17 in 10.0 mi NW 9.2 mph - N/A   Overcast
2:55 AM 35.8 °F 28.8 °F 30.0 °F 80% 30.18 in 10.0 mi WNW 9.2 mph - N/A   Overcast
3:15 AM 36.1 °F 27.7 °F 29.1 °F 76% 30.19 in 10.0 mi WNW 12.7 mph 16.1 mph N/A   Overcast
3:35 AM 36.0 °F 27.5 °F 27.9 °F 72% 30.19 in 10.0 mi NW 12.7 mph - N/A   Overcast
3:55 AM 35.8 °F 30.9 °F 28.2 °F 74% 30.20 in 10.0 mi WNW 5.8 mph - N/A   Overcast
4:15 AM 34.2 °F 26.8 °F 29.3 °F 82% 30.21 in 10.0 mi WNW 9.2 mph - N/A   Mostly Cloudy
4:35 AM 33.8 °F 26.4 °F 28.9 °F 82% 30.22 in 10.0 mi NW 9.2 mph - N/A   Scattered Clouds
4:55 AM 33.8 °F 27.0 °F 29.1 °F 83% 30.23 in 10.0 mi NW 8.1 mph - N/A   Mostly Cloudy
5:15 AM 32.9 °F 27.5 °F 29.7 °F 88% 30.23 in 10.0 mi WNW 5.8 mph - N/A   Overcast
5:35 AM 33.3 °F 30.2 °F 30.2 °F 89% 30.23 in 10.0 mi WSW 3.5 mph - N/A   Overcast
5:55 AM 34.3 °F 28.4 °F 29.7 °F 83% 30.24 in 10.0 mi WNW 6.9 mph - N/A   Overcast
6:15 AM 33.4 °F 27.3 °F 28.6 °F 82% 30.25 in 10.0 mi West 6.9 mph - N/A   Mostly Cloudy
6:35 AM 32.4 °F 26.0 °F 28.4 °F 85% 30.25 in 10.0 mi West 6.9 mph - N/A   Scattered Clouds
6:55 AM 31.8 °F 25.4 °F 28.2 °F 87% 30.25 in 10.0 mi West 6.9 mph - N/A   Scattered Clouds
7:15 AM 32.2 °F 27.7 °F 28.4 °F 86% 30.25 in 10.0 mi WSW 4.6 mph - N/A   Overcast
7:35 AM 32.9 °F 28.5 °F 28.4 °F 84% 30.25 in 10.0 mi WSW 4.6 mph - N/A   Overcast
7:55 AM 32.9 °F 29.8 °F 28.4 °F 84% 30.25 in 10.0 mi WSW 3.5 mph - N/A   Overcast
8:15 AM 33.3 °F 27.9 °F 28.8 °F 84% 30.26 in 10.0 mi WSW 5.8 mph - N/A   Overcast
8:35 AM 33.8 °F 27.0 °F 28.8 °F 82% 30.26 in 10.0 mi West 8.1 mph - N/A   Overcast
8:55 AM 34.7 °F 28.8 °F 27.7 °F 76% 30.26 in 10.0 mi WSW 6.9 mph - N/A   Overcast
9:15 AM 35.2 °F 28.1 °F 28.2 °F 76% 30.26 in 10.0 mi West 9.2 mph - N/A   Overcast
9:35 AM 36.0 °F 29.6 °F 27.0 °F 70% 30.26 in 10.0 mi West 8.1 mph - N/A   Overcast
9:55 AM 36.9 °F 30.1 °F 26.2 °F 65% 30.24 in 10.0 mi WSW 9.2 mph - N/A   Mostly Cloudy
10:15 AM 37.8 °F 30.2 °F 26.8 °F 65% 30.24 in 10.0 mi WSW 11.5 mph - N/A   Scattered Clouds
10:35 AM 38.5 °F 30.7 °F 26.4 °F 62% 30.24 in 10.0 mi West 12.7 mph - N/A   Scattered Clouds
10:55 AM 39.2 °F 31.6 °F 26.2 °F 60% 30.24 in 10.0 mi WSW 12.7 mph 17.3 mph N/A   Clear
11:15 AM 39.9 °F 31.4 °F 25.9 °F 57% 30.22 in 10.0 mi WSW 16.1 mph - N/A   Clear
11:35 AM 39.2 °F 33.0 °F 25.9 °F 59% 30.21 in 10.0 mi WSW 9.2 mph 18.4 mph N/A   Clear
11:55 AM 41.0 °F 34.3 °F 26.1 °F 55% 30.20 in 10.0 mi WSW 11.5 mph - N/A   Clear
12:15 PM 40.6 °F 33.4 °F 25.9 °F 56% 30.19 in 10.0 mi WSW 12.7 mph - N/A   Clear
12:35 PM 41.0 °F 33.5 °F 26.4 °F 56% 30.18 in 10.0 mi SW 13.8 mph 18.4 mph N/A   Clear
12:55 PM 41.0 °F 33.1 °F 25.5 °F 54% 30.17 in 10.0 mi WSW 15.0 mph 19.6 mph N/A   Clear
1:15 PM 41.0 °F 33.1 °F 25.5 °F 54% 30.16 in 10.0 mi WSW 15.0 mph 21.9 mph N/A   Clear
1:35 PM 41.2 °F 34.5 °F 26.2 °F 55% 30.16 in 10.0 mi WSW 11.5 mph - N/A   Clear
1:55 PM 41.9 °F 35.0 °F 25.0 °F 51% 30.14 in 10.0 mi SW 12.7 mph 17.3 mph N/A   Clear
2:15 PM 42.1 °F 34.9 °F 25.3 °F 52% 30.13 in 10.0 mi SW 13.8 mph 17.3 mph N/A   Clear
2:35 PM 42.1 °F 34.9 °F 25.0 °F 51% 30.12 in 10.0 mi WSW 13.8 mph - N/A   Clear
2:55 PM 42.1 °F 34.5 °F 24.8 °F 50% 30.12 in 10.0 mi SW 15.0 mph 20.7 mph N/A   Clear
3:15 PM 42.3 °F 35.9 °F 25.0 °F 50% 30.12 in 10.0 mi WSW 11.5 mph 20.7 mph N/A   Clear
3:35 PM 41.9 °F 33.7 °F 24.8 °F 51% 30.11 in 10.0 mi WSW 17.3 mph 24.2 mph N/A   Clear
3:55 PM 40.8 °F 33.3 °F 25.3 °F 54% 30.11 in 10.0 mi WSW 13.8 mph 20.7 mph N/A   Clear
4:15 PM 40.1 °F 32.7 °F 25.3 °F 56% 30.10 in 10.0 mi SW 12.7 mph 20.7 mph N/A   Clear
4:35 PM 39.2 °F 31.6 °F 25.2 °F 57% 30.10 in 10.0 mi SW 12.7 mph 20.7 mph N/A   Clear
4:55 PM 38.5 °F 30.3 °F 25.2 °F 59% 30.09 in 10.0 mi SW 13.8 mph 19.6 mph N/A   Clear
5:15 PM 37.4 °F 30.8 °F 25.5 °F 62% 30.09 in 10.0 mi SW 9.2 mph - N/A   Clear
5:35 PM 36.5 °F 29.7 °F 25.7 °F 65% 30.09 in 10.0 mi SW 9.2 mph - N/A   Clear
5:55 PM 36.7 °F 29.9 °F 26.2 °F 66% 30.09 in 10.0 mi WSW 9.2 mph - N/A   Clear
6:15 PM 36.7 °F 29.9 °F 26.6 °F 67% 30.09 in 10.0 mi WSW 9.2 mph - N/A   Scattered Clouds
6:35 PM 37.4 °F 30.3 °F 27.0 °F 66% 30.08 in 10.0 mi WSW 10.4 mph - N/A   Mostly Cloudy
6:55 PM 37.8 °F 31.3 °F 27.3 °F 66% 30.08 in 10.0 mi WSW 9.2 mph - N/A   Overcast
7:15 PM 37.9 °F 32.1 °F 27.3 °F 66% 30.08 in 10.0 mi WSW 8.1 mph - N/A   Overcast
7:35 PM 37.9 °F 31.5 °F 27.5 °F 66% 30.08 in 10.0 mi WSW 9.2 mph - N/A   Overcast
7:55 PM 37.8 °F 31.3 °F 27.5 °F 67% 30.07 in 10.0 mi WSW 9.2 mph - N/A   Overcast
8:15 PM 37.2 °F 29.1 °F 28.8 °F 71% 30.08 in 10.0 mi WSW 12.7 mph 18.4 mph N/A Rain Light Rain
8:35 PM 36.7 °F 29.9 °F 29.3 °F 75% 30.08 in 10.0 mi West 9.2 mph - N/A Rain Light Rain
8:55 PM 35.6 °F 27.1 °F 30.6 °F 82% 30.08 in 10.0 mi WSW 12.7 mph 20.7 mph N/A Rain Light Rain
9:15 PM 34.2 °F 26.2 °F 31.8 °F 91% 30.08 in 10.0 mi West 10.4 mph - N/A   Overcast
9:35 PM 33.6 °F 25.6 °F 32.0 °F 94% 30.09 in 10.0 mi WSW 10.4 mph - N/A   Overcast
9:55 PM 33.1 °F 24.9 °F 32.0 °F 96% 30.09 in 5.0 mi West 10.4 mph - N/A Snow Light Snow
10:15 PM 32.9 °F 25.3 °F 32.0 °F 96% 30.08 in 5.0 mi West 9.2 mph - N/A Snow Light Snow
10:35 PM 32.5 °F 25.5 °F 32.0 °F 98% 30.08 in 4.0 mi West 8.1 mph - N/A Snow Light Snow
10:55 PM 31.6 °F 23.1 °F 28.9 °F 90% 30.09 in 4.0 mi NNW 10.4 mph 17.3 mph N/A Snow Light Snow
11:15 PM 30.9 °F 24.3 °F 27.5 °F 87% 30.11 in 10.0 mi NNW 6.9 mph - N/A   Overcast
11:35 PM 28.8 °F 16.2 °F 22.3 °F 77% 30.12 in 10.0 mi NNW 18.4 mph 25.3 mph N/A   Overcast
11:55 PM 27.3 °F 15.2 °F 19.2 °F 72% 30.14 in 10.0 mi NNW 16.1 mph 20.7 mph N/A   Overcast